www.pogodaiklimat.ru

Погода и климат >> Архив погоды >> Индия >> Западная Бенгалия >> Халдия


ПОГОДА в Халдии

  • Прогноз погоды в Халдии
  • Монитор погоды в Халдии

АРХИВ ПОГОДЫ в Халдии

Время (UTC), дата Ветер
(напр.,м/с)
 
Видим.   Явления Облачность Т
(С)
Тd
(С)
f
(%)
Тe
(С)
Тes
(С)
Комфортность P
(гПа)
Po
(гПа)
Тmin
(С)
Tmax
(С)
R
(мм)
R24
(мм)
S
(см)
03 18.06 штиль 0 4000 м 9/1 600 м
[Sc Ac trans Cs]
+32.5 +30.5 89 +61 +69 опасность
перегрева
999.8 998.9 +29.9
06 18.06 ЮВ 1 4000 м 10/3 300 м
[Sc diur, vesp As trans]
+35.8 +28.8 67 +58 +66 опасность
перегрева
1000.2 999.3
09 18.06 штиль 0 4000 м 10/3 300 м
[Sc diur, vesp As trans]
+35.8 +28.8 67 +58 +63 опасность
перегрева
998.3 997.4
12 18.06 штиль 0 4000 м 10/5 300 м
[Sc diur, vesp As op]
+32.4 +28.9 82 +56 +56 опасность
перегрева
998.7 997.8 +36.6
03 19.06 штиль 0 4000 м 1/0
[Ac trans]
+32.4 +27.5 75 +51 +66 опасность
перегрева
1000.3 999.4 +28.4 0.1
06 19.06 штиль 0 4000 м 3/3 300 м
[Sc diur, vesp]
+36.4 +26.8 58 +54 +75 опасность
перегрева
1000.0 999.1
09 19.06 штиль 0 4000 м гроза без осадков 8/5 300 м
[Cb cap Ac As]
+33.0 +29.7 83 +59 +64 опасность
перегрева
998.0 997.1
12 19.06 штиль 0 4000 м {гроза} 9/4 300 м
[Sc diur, vesp As trans]
+32.0 +25.8 70 +47 +48 опасность
перегрева
998.5 997.6 +39.0
03 20.06 штиль 0 4000 м 5/1 600 м
[Sc Ac trans]
+31.8 +26.5 74 +49 +59 опасность
перегрева
1002.0 1001.1 +26.9 0.5
06 20.06 штиль 0 4000 м 9/5 300 м
[Sc diur, vesp Ac As]
+35.0 +27.6 66 +55 +61 опасность
перегрева
1001.7 1000.8
09 20.06 Ю 1 4000 м {гроза, дождь} 8/5 300 м
[Cb calv Ac As]
+31.0 +28.0 84 +51 +56 опасность
перегрева
1000.0 999.1 2
12 20.06 штиль 0 4000 м {гроза, дождь} 8/4 300 м
[Sc diur, vesp Ac As]
+30.6 +27.6 84 +49 +50 опасность
перегрева
999.6 998.7 +35.7 2
03 21.06 штиль 0 4000 м 8/4 300 м
[Sc diur, vesp Ac As]
+29.6 +28.0 91 +49 +54 опасность
перегрева
1001.0 1000.1 +27.0 10
06 21.06 штиль 0 4000 м гроза без осадков 10/6 300 м
[Cb cap Ac As]
+28.8 +28.0 95 +47 +51 опасность
перегрева
1001.4 1000.5 25
09 21.06 ЮВ 1 4000 м {гроза, дождь} 9/3 300 м
[Sc diur, vesp Ac As Ci fib]
+30.4 +27.7 86 +50 +56 опасность
перегрева
998.2 997.3 46
12 21.06 ЮВ 1 4000 м {гроза, дождь} 9/4 300 м
[Sc diur, vesp Ac As Ci fib]
+30.6 +26.4 78 +47 +47 опасность
перегрева
998.3 997.4 +32.2 46
03 22.06 Ю 2 4000 м в посл. час дождь 8/8 200 м
[Frnb]
+30.0 +26.9 84 +47 +50 опасность
перегрева
1002.9 1002.0 +28.0 46
06 22.06 Ю 1 4000 м в посл. час дождь 9/5 200 м
[Cb calv Ac As]
+30.4 +26.8 81 +47 +53 опасность
перегрева
1003.3 1002.4 0.3
09 22.06 ЮЗ 2 4000 м в посл. час дождь 5/3 300 м
[Sc diur, vesp Ac trans]
+31.8 +27.4 78 +51 +58 опасность
перегрева
1001.6 1000.7 0.5
12 22.06 штиль 0 4000 м {дождь} 5/5 300 м
[Sc diur, vesp]
+31.0 +26.8 78 +48 +48 опасность
перегрева
1001.4 1000.5 +33.2 0.5
03 23.06 ЮВ 1 4000 м 6/4 300 м
[Sc diur, vesp Ac trans Ci fib]
+30.8 +26.6 78 +47 +55 опасность
перегрева
1003.8 1002.9 +28.1 0.5
06 23.06 штиль 0 4000 м слаб. дождь 6/4 300 м
[Sc diur, vesp Ac As]
+31.4 +27.0 78 +49 +63 опасность
перегрева
1003.9 1003.0 2
09 23.06 Ю 1 4000 м {дождь} 6/4 200 м
[Frnb Ac As]
+33.0 +27.2 72 +52 +59 опасность
перегрева
1003.0 1002.1 3
12 23.06 штиль 0 4000 м {дождь} 8/5 200 м
[Frnb Ac As]
+31.4 +26.7 76 +48 +49 опасность
перегрева
1002.4 1001.5 +34.5 3
03 24.06 штиль 0 4000 м 6/6 200 м
[Frnb]
+31.6 +27.2 78 +50 +57 опасность
перегрева
1005.9 1005.0 +28.6 3
06 24.06 Ю 1 4000 м {дождь} 3/3 300 м
[Sc diur, vesp]
+34.0 +26.5 65 +51 +70 опасность
перегрева
1005.7 1004.8 0.1
09 24.06 штиль 0 4000 м 3/3 300 м
[Sc diur, vesp]
+34.0 +26.2 64 +50 +63 опасность
перегрева
1003.9 1003.0 0.1
12 24.06 Ю 1 4000 м 3/1 300 м
[Sc Ac trans]
+32.0 +26.1 71 +48 +48 опасность
перегрева
1003.1 1002.2 +34.8 0.1

 

Местоположение метеостанции Халдия (Западная Бенгалия, Индия): широта 22.04 долгота 88.04 высота над уровнем моря 8 м.

В архиве по умолчанию представлена погода в Халдии за последнюю неделю. Архивные данные за месяц целиком и за предыдущие месяцы, начиная с января 2011 года, Вы можете получить, выбрав интересующий диапазон дат из раскрывающегося списка и нажав кнопку "Ввод!".


*Определитесь, кто Вы:
робот инопланетянин человек

Внимание! Время в таблицах - всемирное. Для получения местного времени необходимо прибавить поправку, которая равна 5.5 ч.

Смотрите также архив погоды в соседних городах и на ближайших метеорологических станциях:

Погода в Даймонд Харбор (Западная Бенгалия, Индия) (23 км)
Погода в Контае (Западная Бенгалия, Индия) (42 км)
Погода в Улуберии (Западная Бенгалия, Индия) (52 км)
Погода в Колкате (Западная Бенгалия, Индия) (62 км)
Погода в Каннинге (Западная Бенгалия, Индия) (69 км)
Погода в Диге (Западная Бенгалия, Индия) (73 км)
Погода в Колката аэропорту (Западная Бенгалия, Индия) (80 км)
Погода в Миднапуре (Западная Бенгалия, Индия) (85 км)
Погода в Бейсирхэте (Западная Бенгалия, Индия) (109 км)
Погода в Багати (Западная Бенгалия, Индия) (110 км)

Пояснения к столбцам:

Ветер - указаны скорость ветра в м/с - средняя за 10 мин, порывы в срок и между сроками (в фигурных скобках) и направление, откуда дует ветер: С - северный, СВ - северо-восточный, В - восточный, ЮВ - юго-восточный, Ю - южный, ЮЗ - юго-западный, З - западный, СЗ - северо-западный.
Видимость - горизонтальная дальность видимости в метрах или километрах. При видимости от 1 до 10 км при отсутствии осадков обычно наблюдается дымка, при ухудшении видимости до 1 км и менее - туман. В сухую погоду видимость может ухудшаться дымом, пылью или мглою.
Явления - указаны атмосферные явления, наблюдавшиеся в срок или в последний час перед сроком; фигурными скобками обозначены явления, наблюдавшиеся между сроками (за 1-3 часа до срока); квадратными скобками обозначены град или гололедные отложения с указанием их диаметра в мм.
Облачность - указаны через наклонную черту общая и нижняя облачность в баллах и высота нижней границы облаков в метрах; квадратными скобками обозначены формы облаков: Ci - перистые, Cs - перисто-слоистые, Cc - перисто-кучевые, Ac - высококучевые, As - высокослоистые, Sc - слоисто-кучевые, Ns - слоисто-дождевые, Cu - кучевые, Cb - кучево-дождевые. Подробнее классификацию облаков см. в Атласе облаков (PDF).
T - Температура воздуха - температура, измеренная на высоте 2 м над землей.
Td - Температура точки росы - температура, при понижении до которой содержащийся в воздухе водяной пар достигнет насыщения.
f - Относительная влажность воздуха - влажноcть воздуха, измеренная на высоте 2 м над землей.
Te - Эффективная температура - температура, которую ощущает одетый по сезону человек в тени. Характеристика душности погоды. При расчете учитывается влияние влажности воздуха и скорости ветра на теплоощущения человека.
Tes - Эффективная температура на солнце - температура, которую ощущает человек, с поправкой на солнечный нагрев. Характеристика знойности погоды. Зависит от высоты солнца над горизонтом, облачности и скорости ветра. Ночью, в пасмурную погоду, а также при ветре 12 м/с и более поправка равна нулю.
P - Атмосферное давление - приведенное к уровню моря атмосферное давление.
Po - Атмосферное давление - измеренное на уровне метеостанции атмосферное давление.
Tmin - Минимальная температура - минимум температуры воздуха на высоте 2 м над землей.
Tmax - Максимальная температура - максимум температуры воздуха на высоте 2 м над землей.
R - Количество осадков - Количество выпавших осадков за период времени, мм. При наведении курсора мыши на число - период времени, за который выпало указанное количество осадков.
R24 - Количество осадков - Количество выпавших осадков за 24 часа, мм.
S - Снежный покров - Высота снежного покрова, см. При наведении курсора мыши на число - состояние снежного покрова и степень покрытия местности в баллах.